Time,TemperatureF,DewpointF,PressureIn,WindDirection,WindDirectionDegrees,WindSpeedMPH,WindSpeedGustMPH,Humidity,HourlyPrecipIn,Conditions,Clouds,dailyrainin,SoftwareType,DateUTC
2013-07-03 00:01:00,75.4,72.9,30.06,East,89,0.0,3.0,92,0.00,,,0.00,WeatherCatV1.15B25,2013-07-03 04:01:00,
2013-07-03 00:02:00,75.4,72.9,30.06,East,89,0.0,1.0,92,0.00,,,0.00,WeatherCatV1.15B25,2013-07-03 04:02:00,
2013-07-03 00:07:00,75.5,73.0,30.06,ESE,112,1.0,5.0,92,0.00,,,0.00,WeatherCatV1.15B25,2013-07-03 04:07:00,
2013-07-03 00:12:00,75.5,73.0,30.06,East,92,4.0,5.0,92,0.00,,,0.00,WeatherCatV1.15B25,2013-07-03 04:12:00,
2013-07-03 00:17:00,75.5,73.3,30.05,ESE,119,1.0,3.0,93,0.00,,,0.00,WeatherCatV1.15B25,2013-07-03 04:17:00,
2013-07-03 00:18:00,75.5,73.3,30.05,ESE,109,1.0,3.0,93,0.00,,,0.00,WeatherCatV1.15B25,2013-07-03 04:18:00,
2013-07-03 00:20:00,75.5,73.3,30.05,ESE,112,0.0,5.0,93,0.00,,,0.00,WeatherCatV1.15B25,2013-07-03 04:20:00,
2013-07-03 00:25:00,75.6,73.4,30.05,ESE,115,1.0,5.0,93,0.00,,,0.00,WeatherCatV1.15B25,2013-07-03 04:25:00,
2013-07-03 00:30:00,75.7,73.5,30.05,ESE,115,1.0,5.0,93,0.00,,,0.00,WeatherCatV1.15B25,2013-07-03 04:30:00,
2013-07-03 00:35:00,75.7,73.8,30.05,ESE,109,0.0,4.0,94,0.00,,,0.00,WeatherCatV1.15B25,2013-07-03 04:35:00,
2013-07-03 00:40:00,75.7,73.8,30.05,ESE,103,4.0,7.0,94,0.00,,,0.00,WeatherCatV1.15B25,2013-07-03 04:40:00,
2013-07-03 00:45:00,75.7,73.8,30.04,East,98,1.0,7.0,94,0.00,,,0.00,WeatherCatV1.15B25,2013-07-03 04:45:00,
2013-07-03 00:50:00,75.7,73.8,30.04,ENE,67,2.0,5.0,94,0.00,,,0.00,WeatherCatV1.15B25,2013-07-03 04:50:00,
2013-07-03 00:55:00,75.7,73.8,30.04,SE,130,2.0,5.0,94,0.00,,,0.00,WeatherCatV1.15B25,2013-07-03 04:55:00,
2013-07-03 01:00:00,75.7,73.8,30.04,ESE,103,1.0,5.0,94,0.00,,,0.00,WeatherCatV1.15B25,2013-07-03 05:00:00,
2013-07-03 01:05:00,75.6,73.7,30.05,ESE,117,3.0,6.0,94,0.00,,,0.00,WeatherCatV1.15B25,2013-07-03 05:05:00,
2013-07-03 01:10:00,75.6,73.7,30.05,ESE,119,4.0,7.0,94,0.00,,,0.00,WeatherCatV1.15B25,2013-07-03 05:10:00,
2013-07-03 01:15:00,75.6,73.4,30.05,ESE,105,2.0,5.0,93,0.00,,,0.00,WeatherCatV1.15B25,2013-07-03 05:15:00,
2013-07-03 01:20:00,75.6,73.4,30.04,ENE,66,4.0,7.0,93,0.00,,,0.00,WeatherCatV1.15B25,2013-07-03 05:20:00,
2013-07-03 01:23:00,75.5,73.3,30.04,East,96,7.0,8.0,93,0.00,,,0.00,WeatherCatV1.15B25,2013-07-03 05:23:00,
2013-07-03 01:28:00,75.5,73.3,30.04,East,98,1.0,5.0,93,0.00,,,0.00,WeatherCatV1.15B25,2013-07-03 05:28:00,
2013-07-03 01:33:00,75.5,73.3,30.05,ESE,112,1.0,4.0,93,0.00,,,0.00,WeatherCatV1.15B25,2013-07-03 05:33:00,
2013-07-03 01:38:00,75.4,73.2,30.05,ENE,77,1.0,5.0,93,0.00,,,0.00,WeatherCatV1.15B25,2013-07-03 05:38:00,
2013-07-03 01:43:00,75.4,72.9,30.05,East,99,1.0,5.0,92,0.00,,,0.00,WeatherCatV1.15B25,2013-07-03 05:43:00,
2013-07-03 01:48:00,75.4,72.9,30.05,ESE,116,0.0,2.0,92,0.00,,,0.00,WeatherCatV1.15B25,2013-07-03 05:48:00,
2013-07-03 01:54:00,75.3,72.8,30.05,ESE,109,0.0,4.0,92,0.00,,,0.00,WeatherCatV1.15B25,2013-07-03 05:54:00,
2013-07-03 01:59:00,75.3,72.8,30.05,ESE,109,0.0,2.0,92,0.00,,,0.00,WeatherCatV1.15B25,2013-07-03 05:59:00,
2013-07-03 02:04:00,75.2,72.7,30.05,East,82,0.0,4.0,92,0.00,,,0.00,WeatherCatV1.15B25,2013-07-03 06:04:00,
2013-07-03 02:09:00,75.2,72.7,30.05,ESE,103,1.0,5.0,92,0.00,,,0.00,WeatherCatV1.15B25,2013-07-03 06:09:00,
2013-07-03 02:14:00,75.1,72.6,30.05,East,86,1.0,3.0,92,0.00,,,0.00,WeatherCatV1.15B25,2013-07-03 06:14:00,
2013-07-03 02:16:00,75.1,72.6,30.05,East,100,0.0,4.0,92,0.00,,,0.00,WeatherCatV1.15B25,2013-07-03 06:16:00,
2013-07-03 02:20:00,75.1,72.6,30.05,East,93,3.0,5.0,92,0.00,,,0.00,WeatherCatV1.15B25,2013-07-03 06:20:00,
2013-07-03 02:26:00,75.1,72.6,30.05,ESE,115,4.0,6.0,92,0.00,,,0.00,WeatherCatV1.15B25,2013-07-03 06:26:00,
2013-07-03 02:30:00,75.0,72.5,30.05,ESE,111,0.0,5.0,92,0.00,,,0.00,WeatherCatV1.15B25,2013-07-03 06:30:00,
2013-07-03 02:31:00,75.0,72.5,30.05,East,85,2.0,3.0,92,0.00,,,0.00,WeatherCatV1.15B25,2013-07-03 06:31:00,
2013-07-03 02:36:00,74.9,72.4,30.05,East,92,4.0,4.0,92,0.00,,,0.00,WeatherCatV1.15B25,2013-07-03 06:36:00,
2013-07-03 02:41:00,74.8,72.3,30.05,East,79,0.0,4.0,92,0.00,,,0.00,WeatherCatV1.15B25,2013-07-03 06:41:00,
2013-07-03 02:46:00,74.7,72.2,30.05,SE,134,1.0,3.0,92,0.00,,,0.00,WeatherCatV1.15B25,2013-07-03 06:46:00,
2013-07-03 02:51:00,74.7,72.2,30.05,East,90,0.0,1.0,92,0.00,,,0.00,WeatherCatV1.15B25,2013-07-03 06:51:00,
2013-07-03 02:56:00,74.7,72.2,30.05,ENE,70,1.0,4.0,92,0.00,,,0.00,WeatherCatV1.15B25,2013-07-03 06:56:00,
2013-07-03 03:01:00,74.6,72.1,30.05,ESE,102,4.0,5.0,92,0.00,,,0.00,WeatherCatV1.15B25,2013-07-03 07:01:00,
2013-07-03 03:06:00,74.5,72.0,30.05,ESE,102,0.0,0.0,92,0.00,,,0.00,WeatherCatV1.15B25,2013-07-03 07:06:00,
2013-07-03 03:11:00,74.4,71.9,30.05,ESE,106,0.0,1.0,92,0.00,,,0.00,WeatherCatV1.15B25,2013-07-03 07:11:00,
2013-07-03 03:15:00,74.4,71.9,30.05,East,98,0.0,3.0,92,0.00,,,0.00,WeatherCatV1.15B25,2013-07-03 07:15:00,
2013-07-03 03:20:00,74.3,71.8,30.05,East,89,0.0,2.0,92,0.00,,,0.00,WeatherCatV1.15B25,2013-07-03 07:20:00,
2013-07-03 03:25:00,74.3,71.8,30.05,East,88,0.0,1.0,92,0.00,,,0.00,WeatherCatV1.15B25,2013-07-03 07:25:00,
2013-07-03 03:30:00,74.3,71.8,30.05,East,98,2.0,6.0,92,0.00,,,0.00,WeatherCatV1.15B25,2013-07-03 07:30:00,
2013-07-03 03:35:00,74.3,71.8,30.04,East,101,1.0,2.0,92,0.00,,,0.00,WeatherCatV1.15B25,2013-07-03 07:35:00,
2013-07-03 03:37:00,74.3,72.1,30.04,ESE,103,0.0,6.0,93,0.00,,,0.00,WeatherCatV1.15B25,2013-07-03 07:37:00,
2013-07-03 03:42:00,74.3,71.8,30.04,East,80,0.0,4.0,92,0.00,,,0.00,WeatherCatV1.15B25,2013-07-03 07:42:00,
2013-07-03 03:47:00,74.3,72.1,30.04,ENE,71,1.0,2.0,93,0.00,,,0.00,WeatherCatV1.15B25,2013-07-03 07:47:00,
2013-07-03 03:49:00,74.3,72.1,30.04,East,88,0.0,4.0,93,0.00,,,0.00,WeatherCatV1.15B25,2013-07-03 07:49:00,
2013-07-03 03:54:00,74.3,72.1,30.04,ENE,67,4.0,5.0,93,0.00,,,0.00,WeatherCatV1.15B25,2013-07-03 07:54:00,
2013-07-03 03:59:00,74.4,71.9,30.04,East,80,1.0,7.0,92,0.00,,,0.00,WeatherCatV1.15B25,2013-07-03 07:59:00,
2013-07-03 04:04:00,74.4,72.2,30.04,NE,56,0.0,4.0,93,0.00,,,0.00,WeatherCatV1.15B25,2013-07-03 08:04:00,
2013-07-03 04:09:00,74.3,72.1,30.03,ENE,77,1.0,5.0,93,0.00,,,0.00,WeatherCatV1.15B25,2013-07-03 08:09:00,
2013-07-03 04:13:00,74.3,72.1,30.03,ESE,106,0.0,1.0,93,0.00,,,0.00,WeatherCatV1.15B25,2013-07-03 08:13:00,
2013-07-03 04:18:00,74.3,72.1,30.04,ESE,102,2.0,5.0,93,0.00,,,0.00,WeatherCatV1.15B25,2013-07-03 08:18:00,
2013-07-03 04:23:00,74.3,72.1,30.04,East,82,1.0,4.0,93,0.00,,,0.00,WeatherCatV1.15B25,2013-07-03 08:23:00,
2013-07-03 04:28:00,74.3,72.1,30.03,ENE,78,2.0,5.0,93,0.00,,,0.00,WeatherCatV1.15B25,2013-07-03 08:28:00,
2013-07-03 04:33:00,74.3,72.1,30.03,ESE,115,5.0,5.0,93,0.00,,,0.00,WeatherCatV1.15B25,2013-07-03 08:33:00,
2013-07-03 04:38:00,74.3,72.1,30.04,East,92,2.0,2.0,93,0.00,,,0.00,WeatherCatV1.15B25,2013-07-03 08:38:00,
2013-07-03 04:41:00,74.3,72.1,30.04,ESE,114,4.0,5.0,93,0.00,,,0.00,WeatherCatV1.15B25,2013-07-03 08:41:00,
2013-07-03 04:46:00,74.4,72.2,30.04,ESE,102,0.0,4.0,93,0.00,,,0.00,WeatherCatV1.15B25,2013-07-03 08:46:00,
2013-07-03 04:51:00,74.4,72.2,30.04,ESE,115,4.0,5.0,93,0.00,,,0.00,WeatherCatV1.15B25,2013-07-03 08:51:00,
2013-07-03 04:56:00,74.4,72.2,30.04,ESE,105,1.0,6.0,93,0.00,,,0.00,WeatherCatV1.15B25,2013-07-03 08:56:00,
2013-07-03 05:01:00,74.4,72.2,30.04,ESE,103,1.0,3.0,93,0.00,,,0.00,WeatherCatV1.15B25,2013-07-03 09:01:00,
2013-07-03 05:06:00,74.4,72.2,30.04,ENE,69,1.0,2.0,93,0.00,,,0.00,WeatherCatV1.15B25,2013-07-03 09:06:00,
2013-07-03 05:11:00,74.4,72.2,30.04,East,92,0.0,3.0,93,0.00,,,0.00,WeatherCatV1.15B25,2013-07-03 09:11:00,
2013-07-03 05:16:00,74.4,72.2,30.04,East,89,1.0,4.0,93,0.00,,,0.00,WeatherCatV1.15B25,2013-07-03 09:16:00,
2013-07-03 05:21:00,74.5,72.3,30.04,East,96,1.0,4.0,93,0.00,,,0.00,WeatherCatV1.15B25,2013-07-03 09:21:00,
2013-07-03 05:26:00,74.4,72.2,30.04,East,79,2.0,2.0,93,0.00,,,0.00,WeatherCatV1.15B25,2013-07-03 09:26:00,
2013-07-03 05:31:00,74.4,71.9,30.04,East,95,2.0,2.0,92,0.00,,,0.00,WeatherCatV1.15B25,2013-07-03 09:31:00,
2013-07-03 05:36:00,74.4,71.9,30.04,ESE,112,0.0,5.0,92,0.00,,,0.00,WeatherCatV1.15B25,2013-07-03 09:36:00,
2013-07-03 05:41:00,74.4,71.9,30.04,East,79,2.0,2.0,92,0.00,,,0.00,WeatherCatV1.15B25,2013-07-03 09:41:00,
2013-07-03 05:42:00,74.4,71.9,30.04,East,79,0.0,2.0,92,0.00,,,0.00,WeatherCatV1.15B25,2013-07-03 09:42:00,
2013-07-03 05:47:00,74.4,71.9,30.04,East,79,0.0,2.0,92,0.00,,,0.00,WeatherCatV1.15B25,2013-07-03 09:47:00,
2013-07-03 05:52:00,74.4,71.9,30.04,East,80,1.0,2.0,92,0.00,,,0.00,WeatherCatV1.15B25,2013-07-03 09:52:00,
2013-07-03 05:57:00,74.4,71.9,30.03,ENE,78,0.0,1.0,92,0.00,,,0.00,WeatherCatV1.15B25,2013-07-03 09:57:00,
2013-07-03 06:02:00,74.4,71.9,30.04,East,94,2.0,5.0,92,0.00,,,0.00,WeatherCatV1.15B25,2013-07-03 10:02:00,
2013-07-03 06:05:00,74.4,72.2,30.04,ESE,109,2.0,5.0,93,0.00,,,0.00,WeatherCatV1.15B25,2013-07-03 10:05:00,
2013-07-03 06:10:00,74.4,72.2,30.04,ESE,105,4.0,4.0,93,0.00,,,0.00,WeatherCatV1.15B25,2013-07-03 10:10:00,
2013-07-03 06:11:00,74.4,72.2,30.04,East,100,2.0,4.0,93,0.00,,,0.00,WeatherCatV1.15B25,2013-07-03 10:11:00,
2013-07-03 06:16:00,74.4,72.2,30.04,East,98,0.0,4.0,93,0.00,,,0.00,WeatherCatV1.15B25,2013-07-03 10:16:00,
2013-07-03 06:21:00,74.4,72.2,30.04,ESE,107,0.0,1.0,93,0.00,,,0.00,WeatherCatV1.15B25,2013-07-03 10:21:00,
2013-07-03 06:26:00,74.4,72.2,30.04,East,99,0.0,5.0,93,0.00,,,0.00,WeatherCatV1.15B25,2013-07-03 10:26:00,
2013-07-03 06:31:00,74.4,72.2,30.04,East,90,5.0,5.0,93,0.00,,,0.00,WeatherCatV1.15B25,2013-07-03 10:31:00,
2013-07-03 06:36:00,74.4,72.2,30.04,ENE,77,2.0,4.0,93,0.00,,,0.00,WeatherCatV1.15B25,2013-07-03 10:36:00,
2013-07-03 06:41:00,74.5,72.7,30.04,East,101,2.0,5.0,94,0.00,,,0.00,WeatherCatV1.15B25,2013-07-03 10:41:00,
2013-07-03 06:46:00,74.5,72.7,30.04,East,81,1.0,5.0,94,0.00,,,0.00,WeatherCatV1.15B25,2013-07-03 10:46:00,
2013-07-03 06:51:00,74.6,72.8,30.04,ESE,110,0.0,4.0,94,0.00,,,0.00,WeatherCatV1.15B25,2013-07-03 10:51:00,
2013-07-03 06:56:00,74.6,72.8,30.04,East,98,0.0,5.0,94,0.00,,,0.00,WeatherCatV1.15B25,2013-07-03 10:56:00,
2013-07-03 07:01:00,74.6,72.8,30.05,East,85,2.0,2.0,94,0.00,,,0.00,WeatherCatV1.15B25,2013-07-03 11:01:00,
2013-07-03 07:06:00,74.7,72.9,30.04,ENE,69,5.0,5.0,94,0.00,,,0.00,WeatherCatV1.15B25,2013-07-03 11:06:00,
2013-07-03 07:07:00,74.7,72.9,30.05,East,82,4.0,7.0,94,0.00,,,0.00,WeatherCatV1.15B25,2013-07-03 11:07:00,
2013-07-03 07:12:00,74.7,72.9,30.05,East,89,1.0,5.0,94,0.00,,,0.00,WeatherCatV1.15B25,2013-07-03 11:12:00,
2013-07-03 07:17:00,74.8,72.9,30.05,East,89,4.0,5.0,94,0.00,,,0.00,WeatherCatV1.15B25,2013-07-03 11:17:00,
2013-07-03 07:22:00,74.8,72.9,30.05,ESE,105,3.0,5.0,94,0.00,,,0.00,WeatherCatV1.15B25,2013-07-03 11:22:00,
2013-07-03 07:27:00,74.9,73.1,30.05,East,92,2.0,7.0,94,0.00,,,0.00,WeatherCatV1.15B25,2013-07-03 11:27:00,
2013-07-03 07:32:00,75.1,73.2,30.06,East,92,0.0,2.0,94,0.00,,,0.00,WeatherCatV1.15B25,2013-07-03 11:32:00,
2013-07-03 07:37:00,75.2,73.3,30.06,East,88,2.0,4.0,94,0.00,,,0.00,WeatherCatV1.15B25,2013-07-03 11:37:00,
2013-07-03 07:42:00,75.4,73.2,30.06,East,94,2.0,5.0,93,0.00,,,0.00,WeatherCatV1.15B25,2013-07-03 11:42:00,
2013-07-03 07:47:00,75.5,73.3,30.06,East,97,2.0,2.0,93,0.00,,,0.00,WeatherCatV1.15B25,2013-07-03 11:47:00,
2013-07-03 07:52:00,75.7,73.5,30.06,ESE,121,0.0,5.0,93,0.00,,,0.00,WeatherCatV1.15B25,2013-07-03 11:52:00,
2013-07-03 07:57:00,75.8,73.6,30.07,ESE,103,3.0,4.0,93,0.00,,,0.00,WeatherCatV1.15B25,2013-07-03 11:57:00,
2013-07-03 08:01:00,75.9,73.7,30.07,East,90,7.0,7.0,93,0.00,,,0.00,WeatherCatV1.15B25,2013-07-03 12:01:00,
2013-07-03 08:06:00,76.1,73.9,30.07,ESE,121,3.0,5.0,93,0.00,,,0.00,WeatherCatV1.15B25,2013-07-03 12:06:00,
2013-07-03 08:11:00,76.3,73.8,30.07,ENE,74,2.0,6.0,92,0.00,,,0.00,WeatherCatV1.15B25,2013-07-03 12:11:00,
2013-07-03 08:16:00,76.4,73.9,30.07,ESE,115,5.0,5.0,92,0.00,,,0.00,WeatherCatV1.15B25,2013-07-03 12:16:00,
2013-07-03 08:21:00,76.6,74.1,30.07,ESE,120,1.0,5.0,92,0.00,,,0.00,WeatherCatV1.15B25,2013-07-03 12:21:00,
2013-07-03 08:24:00,76.7,74.2,30.07,ENE,78,6.0,8.0,92,0.00,,,0.00,WeatherCatV1.15B25,2013-07-03 12:24:00,
2013-07-03 08:26:00,76.7,74.2,30.07,ENE,73,1.0,3.0,92,0.00,,,0.00,WeatherCatV1.15B25,2013-07-03 12:26:00,
2013-07-03 08:31:00,76.8,74.3,30.07,SE,139,0.0,5.0,92,0.00,,,0.00,WeatherCatV1.15B25,2013-07-03 12:31:00,
2013-07-03 08:36:00,76.9,74.4,30.07,East,81,2.0,6.0,92,0.00,,,0.00,WeatherCatV1.15B25,2013-07-03 12:36:00,
2013-07-03 08:41:00,77.0,74.2,30.07,East,96,4.0,5.0,91,0.00,,,0.00,WeatherCatV1.15B25,2013-07-03 12:41:00,
2013-07-03 08:46:00,77.1,74.3,30.08,ESE,111,6.0,6.0,91,0.00,,,0.00,WeatherCatV1.15B25,2013-07-03 12:46:00,
2013-07-03 08:52:00,77.3,74.5,30.08,East,97,0.0,7.0,91,0.00,,,0.00,WeatherCatV1.15B25,2013-07-03 12:52:00,
2013-07-03 08:57:00,77.4,74.6,30.07,East,94,0.0,6.0,91,0.00,,,0.00,WeatherCatV1.15B25,2013-07-03 12:57:00,
2013-07-03 09:02:00,77.6,74.8,30.07,ESE,119,2.0,9.0,91,0.00,,,0.00,WeatherCatV1.15B25,2013-07-03 13:02:00,
2013-07-03 09:07:00,77.8,75.0,30.08,SE,144,0.0,4.0,91,0.00,,,0.00,WeatherCatV1.15B25,2013-07-03 13:07:00,
2013-07-03 09:12:00,78.1,74.9,30.07,ESE,118,1.0,5.0,90,0.00,,,0.00,WeatherCatV1.15B25,2013-07-03 13:12:00,
2013-07-03 09:17:00,78.4,75.2,30.07,ESE,107,2.0,4.0,90,0.00,,,0.00,WeatherCatV1.15B25,2013-07-03 13:17:00,
2013-07-03 09:22:00,78.7,75.5,30.08,ESE,119,1.0,6.0,90,0.00,,,0.00,WeatherCatV1.15B25,2013-07-03 13:22:00,
2013-07-03 09:27:00,78.9,75.4,30.08,ESE,109,2.0,4.0,89,0.00,,,0.00,WeatherCatV1.15B25,2013-07-03 13:27:00,
2013-07-03 09:32:00,79.1,75.6,30.07,ESE,122,1.0,3.0,89,0.00,,,0.00,WeatherCatV1.15B25,2013-07-03 13:32:00,
2013-07-03 09:37:00,79.3,75.4,30.07,East,82,1.0,3.0,88,0.00,,,0.00,WeatherCatV1.15B25,2013-07-03 13:37:00,
2013-07-03 09:41:00,79.5,75.3,30.07,ENE,74,2.0,5.0,87,0.00,,,0.00,WeatherCatV1.15B25,2013-07-03 13:41:00,
2013-07-03 09:46:00,79.8,75.6,30.07,SSE,149,0.0,5.0,87,0.00,,,0.00,WeatherCatV1.15B25,2013-07-03 13:46:00,
2013-07-03 09:51:00,80.0,75.4,30.07,ESE,107,1.0,6.0,86,0.00,,,0.00,WeatherCatV1.15B25,2013-07-03 13:51:00,
2013-07-03 09:56:00,80.2,75.6,30.07,SE,128,1.0,5.0,86,0.00,,,0.00,WeatherCatV1.15B25,2013-07-03 13:56:00,
2013-07-03 10:01:00,80.5,75.9,30.08,SE,126,2.0,3.0,86,0.00,,,0.00,WeatherCatV1.15B25,2013-07-03 14:01:00,
2013-07-03 10:06:00,80.7,75.8,30.07,South,179,1.0,10.0,85,0.00,,,0.00,WeatherCatV1.15B25,2013-07-03 14:06:00,
2013-07-03 10:11:00,80.9,75.6,30.08,ESE,107,4.0,7.0,84,0.00,,,0.00,WeatherCatV1.15B25,2013-07-03 14:11:00,
2013-07-03 10:16:00,81.1,75.8,30.08,ESE,109,0.0,5.0,84,0.00,,,0.00,WeatherCatV1.15B25,2013-07-03 14:16:00,
2013-07-03 10:21:00,81.1,75.8,30.08,ESE,106,2.0,6.0,84,0.00,,,0.00,WeatherCatV1.15B25,2013-07-03 14:21:00,
2013-07-03 10:26:00,81.2,75.9,30.08,ESE,104,1.0,3.0,84,0.00,,,0.00,WeatherCatV1.15B25,2013-07-03 14:26:00,
2013-07-03 10:31:00,81.3,76.0,30.08,SE,137,1.0,2.0,84,0.00,,,0.00,WeatherCatV1.15B25,2013-07-03 14:31:00,
2013-07-03 10:36:00,81.3,75.6,30.07,ESE,108,2.0,2.0,83,0.00,,,0.00,WeatherCatV1.15B25,2013-07-03 14:36:00,
2013-07-03 10:37:00,81.3,75.6,30.08,East,88,0.0,4.0,83,0.00,,,0.00,WeatherCatV1.15B25,2013-07-03 14:37:00,
2013-07-03 10:42:00,81.5,76.2,30.08,SE,134,0.0,1.0,84,0.00,,,0.00,WeatherCatV1.15B25,2013-07-03 14:42:00,
2013-07-03 10:47:00,81.6,75.9,30.08,SE,130,4.0,5.0,83,0.00,,,0.00,WeatherCatV1.15B25,2013-07-03 14:47:00,
2013-07-03 10:51:00,81.7,76.0,30.08,NE,54,0.0,5.0,83,0.00,,,0.00,WeatherCatV1.15B25,2013-07-03 14:51:00,
2013-07-03 10:56:00,81.8,76.1,30.08,ENE,63,2.0,5.0,83,0.00,,,0.00,WeatherCatV1.15B25,2013-07-03 14:56:00,
2013-07-03 10:57:00,81.8,75.7,30.08,ESE,107,2.0,6.0,82,0.00,,,0.00,WeatherCatV1.15B25,2013-07-03 14:57:00,
2013-07-03 11:02:00,82.0,76.3,30.08,South,187,2.0,5.0,83,0.00,,,0.00,WeatherCatV1.15B25,2013-07-03 15:02:00,
2013-07-03 11:07:00,82.1,76.4,30.08,East,94,0.0,1.0,83,0.00,,,0.00,WeatherCatV1.15B25,2013-07-03 15:07:00,
2013-07-03 11:12:00,82.3,76.2,30.08,ESE,116,0.0,6.0,82,0.00,,,0.00,WeatherCatV1.15B25,2013-07-03 15:12:00,
2013-07-03 11:17:00,82.4,76.3,30.08,East,101,3.0,5.0,82,0.00,,,0.00,WeatherCatV1.15B25,2013-07-03 15:17:00,
2013-07-03 11:22:00,82.6,76.5,30.08,SE,142,3.0,5.0,82,0.00,,,0.00,WeatherCatV1.15B25,2013-07-03 15:22:00,
2013-07-03 11:27:00,82.9,76.4,30.08,SSE,166,1.0,2.0,81,0.00,,,0.00,WeatherCatV1.15B25,2013-07-03 15:27:00,
2013-07-03 11:32:00,83.0,76.5,30.08,SE,128,0.0,7.0,81,0.00,,,0.00,WeatherCatV1.15B25,2013-07-03 15:32:00,
2013-07-03 11:37:00,83.3,76.5,30.08,East,101,2.0,7.0,80,0.00,,,0.00,WeatherCatV1.15B25,2013-07-03 15:37:00,
2013-07-03 11:42:00,83.5,76.7,30.08,SE,128,4.0,5.0,80,0.00,,,0.00,WeatherCatV1.15B25,2013-07-03 15:42:00,
2013-07-03 11:47:00,83.7,75.7,30.08,SSE,148,3.0,9.0,77,0.00,,,0.00,WeatherCatV1.15B25,2013-07-03 15:47:00,
2013-07-03 11:49:00,83.8,75.8,30.08,SE,130,4.0,7.0,77,0.00,,,0.00,WeatherCatV1.15B25,2013-07-03 15:49:00,
2013-07-03 11:51:00,83.9,76.7,30.08,SE,130,0.0,7.0,79,0.00,,,0.00,WeatherCatV1.15B25,2013-07-03 15:51:00,
2013-07-03 11:56:00,84.3,77.1,30.08,East,82,1.0,5.0,79,0.00,,,0.00,WeatherCatV1.15B25,2013-07-03 15:56:00,
2013-07-03 12:01:00,84.5,76.5,30.08,SE,124,0.0,4.0,77,0.00,,,0.00,WeatherCatV1.15B25,2013-07-03 16:01:00,
2013-07-03 12:06:00,84.9,77.2,30.08,SE,133,1.0,7.0,78,0.00,,,0.00,WeatherCatV1.15B25,2013-07-03 16:06:00,
2013-07-03 12:11:00,85.2,77.1,30.08,SE,141,4.0,9.0,77,0.00,,,0.00,WeatherCatV1.15B25,2013-07-03 16:11:00,
2013-07-03 12:16:00,85.4,76.5,30.08,East,82,6.0,8.0,75,0.00,,,0.00,WeatherCatV1.15B25,2013-07-03 16:16:00,
2013-07-03 12:21:00,85.5,76.2,30.08,East,92,4.0,8.0,74,0.00,,,0.00,WeatherCatV1.15B25,2013-07-03 16:21:00,
2013-07-03 12:26:00,85.5,77.0,30.08,East,98,1.0,5.0,76,0.00,,,0.00,WeatherCatV1.15B25,2013-07-03 16:26:00,
2013-07-03 12:31:00,85.9,76.6,30.07,SE,132,2.0,8.0,74,0.00,,,0.00,WeatherCatV1.15B25,2013-07-03 16:31:00,
2013-07-03 12:36:00,86.3,76.6,30.07,ESE,109,1.0,7.0,73,0.00,,,0.00,WeatherCatV1.15B25,2013-07-03 16:36:00,
2013-07-03 12:41:00,86.5,76.4,30.07,SE,138,0.0,7.0,72,0.00,,,0.00,WeatherCatV1.15B25,2013-07-03 16:41:00,
2013-07-03 12:46:00,86.8,76.2,30.06,SSE,153,2.0,5.0,71,0.00,,,0.00,WeatherCatV1.15B25,2013-07-03 16:46:00,
2013-07-03 12:51:00,86.8,75.8,30.06,SSE,163,2.0,8.0,70,0.00,,,0.00,WeatherCatV1.15B25,2013-07-03 16:51:00,
2013-07-03 12:56:00,86.5,75.9,30.06,ESE,122,6.0,8.0,71,0.00,,,0.00,WeatherCatV1.15B25,2013-07-03 16:56:00,
2013-07-03 13:01:00,86.8,75.8,30.06,South,175,1.0,8.0,70,0.00,,,0.00,WeatherCatV1.15B25,2013-07-03 17:01:00,
2013-07-03 13:06:00,87.0,76.0,30.06,ESE,119,1.0,7.0,70,0.00,,,0.00,WeatherCatV1.15B25,2013-07-03 17:06:00,
2013-07-03 13:11:00,87.3,76.3,30.06,ESE,111,1.0,6.0,70,0.00,,,0.00,WeatherCatV1.15B25,2013-07-03 17:11:00,
2013-07-03 13:16:00,87.9,77.3,30.05,SSE,163,2.0,2.0,71,0.00,,,0.00,WeatherCatV1.15B25,2013-07-03 17:16:00,
2013-07-03 13:21:00,88.2,76.7,30.06,South,181,4.0,5.0,69,0.00,,,0.00,WeatherCatV1.15B25,2013-07-03 17:21:00,
2013-07-03 13:26:00,88.6,76.7,30.06,South,170,2.0,6.0,68,0.00,,,0.00,WeatherCatV1.15B25,2013-07-03 17:26:00,
2013-07-03 13:28:00,88.7,76.7,30.05,SE,127,4.0,10.0,68,0.00,,,0.00,WeatherCatV1.15B25,2013-07-03 17:28:00,
2013-07-03 13:33:00,89.1,76.7,30.05,ESE,116,4.0,7.0,67,0.00,,,0.00,WeatherCatV1.15B25,2013-07-03 17:33:00,
2013-07-03 13:36:00,89.2,76.8,30.05,SSE,161,3.0,6.0,67,0.00,,,0.00,WeatherCatV1.15B25,2013-07-03 17:36:00,
2013-07-03 13:41:00,89.6,76.2,30.05,NE,53,4.0,7.0,65,0.00,,,0.00,WeatherCatV1.15B25,2013-07-03 17:41:00,
2013-07-03 13:46:00,89.8,76.4,30.05,SE,140,4.0,6.0,65,0.00,,,0.00,WeatherCatV1.15B25,2013-07-03 17:46:00,
2013-07-03 13:51:00,90.0,76.6,30.04,East,82,6.0,6.0,65,0.00,,,0.00,WeatherCatV1.15B25,2013-07-03 17:51:00,
2013-07-03 13:56:00,90.0,76.6,30.04,ESE,106,0.0,2.0,65,0.00,,,0.00,WeatherCatV1.15B25,2013-07-03 17:56:00,
2013-07-03 14:01:00,89.9,77.4,30.04,SE,144,1.0,2.0,67,0.00,,,0.00,WeatherCatV1.15B25,2013-07-03 18:01:00,
2013-07-03 14:06:00,89.5,77.1,30.04,South,186,0.0,2.0,67,0.00,,,0.00,WeatherCatV1.15B25,2013-07-03 18:06:00,
2013-07-03 14:11:00,88.9,76.9,30.04,SE,133,3.0,5.0,68,0.00,,,0.00,WeatherCatV1.15B25,2013-07-03 18:11:00,
2013-07-03 14:16:00,88.7,77.6,30.03,ENE,57,5.0,5.0,70,0.00,,,0.00,WeatherCatV1.15B25,2013-07-03 18:16:00,
2013-07-03 14:21:00,88.5,76.6,30.03,SSE,149,4.0,4.0,68,0.00,,,0.00,WeatherCatV1.15B25,2013-07-03 18:21:00,
2013-07-03 14:26:00,88.4,77.3,30.03,South,191,1.0,3.0,70,0.00,,,0.00,WeatherCatV1.15B25,2013-07-03 18:26:00,
2013-07-03 14:31:00,88.2,77.6,30.02,SSW,206,2.0,5.0,71,0.00,,,0.00,WeatherCatV1.15B25,2013-07-03 18:31:00,
2013-07-03 14:36:00,87.5,77.7,30.02,WSW,247,3.0,8.0,73,0.00,,,0.00,WeatherCatV1.15B25,2013-07-03 18:36:00,
2013-07-03 14:41:00,87.3,78.4,30.02,SE,126,2.0,7.0,75,0.00,,,0.00,WeatherCatV1.15B25,2013-07-03 18:41:00,
2013-07-03 14:46:00,87.7,77.5,30.02,SSE,147,11.0,14.0,72,0.00,,,0.00,WeatherCatV1.15B25,2013-07-03 18:46:00,
2013-07-03 14:51:00,86.7,74.4,30.05,East,101,6.0,15.0,67,0.00,,,0.00,WeatherCatV1.15B25,2013-07-03 18:51:00,
2013-07-03 14:56:00,82.7,73.9,30.07,SSE,164,4.0,14.0,75,4.00,,,0.17,WeatherCatV1.15B25,2013-07-03 18:56:00,
2013-07-03 15:02:00,78.5,73.6,30.07,SE,141,0.0,7.0,85,7.29,,,0.76,WeatherCatV1.15B25,2013-07-03 19:02:00,
2013-07-03 15:07:00,76.9,72.4,30.07,East,82,1.0,5.0,86,3.06,,,1.03,WeatherCatV1.15B25,2013-07-03 19:07:00,
2013-07-03 15:12:00,76.0,72.8,30.07,ENE,74,0.0,1.0,90,2.17,,,1.17,WeatherCatV1.15B25,2013-07-03 19:12:00,
2013-07-03 15:17:00,75.6,72.8,30.07,ESE,111,1.0,6.0,91,0.45,,,1.23,WeatherCatV1.15B25,2013-07-03 19:17:00,
2013-07-03 15:22:00,75.2,72.7,30.07,East,82,3.0,6.0,92,0.81,,,1.31,WeatherCatV1.15B25,2013-07-03 19:22:00,
2013-07-03 15:27:00,75.1,72.9,30.06,East,88,1.0,4.0,93,0.25,,,1.34,WeatherCatV1.15B25,2013-07-03 19:27:00,
2013-07-03 15:32:00,75.1,73.2,30.05,East,94,2.0,3.0,94,0.16,,,1.35,WeatherCatV1.15B25,2013-07-03 19:32:00,
2013-07-03 15:37:00,75.1,73.2,30.05,East,86,0.0,1.0,94,0.58,,,1.43,WeatherCatV1.15B25,2013-07-03 19:37:00,
2013-07-03 15:42:00,75.2,73.7,30.03,ENE,72,0.0,2.0,95,0.31,,,1.47,WeatherCatV1.15B25,2013-07-03 19:42:00,
2013-07-03 15:47:00,75.3,73.8,30.04,ENE,57,0.0,2.0,95,0.09,,,1.47,WeatherCatV1.15B25,2013-07-03 19:47:00,
2013-07-03 15:52:00,75.3,73.8,30.05,SSE,154,1.0,2.0,95,0.05,,,1.48,WeatherCatV1.15B25,2013-07-03 19:52:00,
2013-07-03 15:57:00,75.3,73.8,30.05,NE,45,0.0,5.0,95,0.63,,,1.53,WeatherCatV1.15B25,2013-07-03 19:57:00,
2013-07-03 16:02:00,75.3,73.8,30.07,SSW,200,7.0,10.0,95,1.60,,,1.57,WeatherCatV1.15B25,2013-07-03 20:02:00,
2013-07-03 16:07:00,74.8,72.9,30.06,SW,226,1.0,2.0,94,0.87,,,1.82,WeatherCatV1.15B25,2013-07-03 20:07:00,
2013-07-03 16:12:00,74.8,72.9,30.07,South,182,1.0,11.0,94,0.17,,,1.84,WeatherCatV1.15B25,2013-07-03 20:12:00,
2013-07-03 16:17:00,74.8,73.3,30.07,SSE,161,0.0,6.0,95,0.76,,,1.89,WeatherCatV1.15B25,2013-07-03 20:17:00,
2013-07-03 16:22:00,74.9,73.4,30.07,South,186,2.0,5.0,95,0.35,,,1.94,WeatherCatV1.15B25,2013-07-03 20:22:00,
2013-07-03 16:27:00,75.0,73.8,30.07,South,175,2.0,2.0,96,0.27,,,1.97,WeatherCatV1.15B25,2013-07-03 20:27:00,
2013-07-03 16:32:00,75.0,73.8,30.07,SSE,163,1.0,2.0,96,0.57,,,2.00,WeatherCatV1.15B25,2013-07-03 20:32:00,
2013-07-03 16:37:00,75.0,73.8,30.08,ESE,112,1.0,3.0,96,0.61,,,2.03,WeatherCatV1.15B25,2013-07-03 20:37:00,
2013-07-03 16:42:00,74.9,73.4,30.08,SSE,152,1.0,4.0,95,6.06,,,2.26,WeatherCatV1.15B25,2013-07-03 20:42:00,
2013-07-03 16:47:00,74.9,73.7,30.09,SSE,155,0.0,4.0,96,5.14,,,2.58,WeatherCatV1.15B25,2013-07-03 20:47:00,
2013-07-03 16:52:00,74.6,73.1,30.09,SSE,165,0.0,2.0,95,5.65,,,2.87,WeatherCatV1.15B25,2013-07-03 20:52:00,
2013-07-03 16:57:00,74.6,73.4,30.08,West,268,0.0,1.0,96,1.00,,,3.07,WeatherCatV1.15B25,2013-07-03 20:57:00,
2013-07-03 17:02:00,74.4,73.2,30.08,SSE,155,1.0,2.0,96,0.33,,,3.11,WeatherCatV1.15B25,2013-07-03 21:02:00,
2013-07-03 17:07:00,74.4,73.2,30.06,SSE,160,0.0,3.0,96,0.21,,,3.13,WeatherCatV1.15B25,2013-07-03 21:07:00,
2013-07-03 17:12:00,74.4,73.2,30.06,South,182,0.0,0.0,96,0.26,,,3.15,WeatherCatV1.15B25,2013-07-03 21:12:00,
2013-07-03 17:17:00,74.5,73.3,30.05,SSW,197,0.0,2.0,96,0.22,,,3.16,WeatherCatV1.15B25,2013-07-03 21:17:00,
2013-07-03 17:22:00,74.5,73.3,30.05,South,174,0.0,2.0,96,0.13,,,3.17,WeatherCatV1.15B25,2013-07-03 21:22:00,
2013-07-03 17:27:00,74.4,73.2,30.05,South,173,0.0,0.0,96,0.07,,,3.18,WeatherCatV1.15B25,2013-07-03 21:27:00,
2013-07-03 17:32:00,74.4,73.2,30.06,South,173,0.0,0.0,96,0.07,,,3.18,WeatherCatV1.15B25,2013-07-03 21:32:00,
2013-07-03 17:37:00,74.4,73.2,30.06,SSE,159,0.0,0.0,96,0.06,,,3.19,WeatherCatV1.15B25,2013-07-03 21:37:00,
2013-07-03 17:42:00,74.5,73.3,30.06,SSE,158,0.0,0.0,96,0.06,,,3.19,WeatherCatV1.15B25,2013-07-03 21:42:00,
2013-07-03 17:47:00,74.5,73.3,30.06,SSE,158,0.0,0.0,96,0.06,,,3.19,WeatherCatV1.15B25,2013-07-03 21:47:00,
2013-07-03 17:52:00,74.5,73.3,30.06,SE,143,0.0,1.0,96,0.04,,,3.19,WeatherCatV1.15B25,2013-07-03 21:52:00,
2013-07-03 17:57:00,74.5,73.3,30.06,SE,139,0.0,0.0,96,0.00,,,3.19,WeatherCatV1.15B25,2013-07-03 21:57:00,
2013-07-03 18:02:00,74.6,73.4,30.05,SE,139,0.0,0.0,96,0.00,,,3.19,WeatherCatV1.15B25,2013-07-03 22:02:00,
2013-07-03 18:07:00,74.7,73.5,30.05,SE,139,0.0,0.0,96,0.00,,,3.19,WeatherCatV1.15B25,2013-07-03 22:07:00,
2013-07-03 18:12:00,74.8,73.6,30.05,SE,139,0.0,0.0,96,0.00,,,3.19,WeatherCatV1.15B25,2013-07-03 22:12:00,
2013-07-03 18:17:00,74.9,73.7,30.04,SE,139,0.0,0.0,96,0.00,,,3.19,WeatherCatV1.15B25,2013-07-03 22:17:00,
2013-07-03 18:22:00,74.9,73.7,30.04,SE,139,0.0,0.0,96,0.00,,,3.19,WeatherCatV1.15B25,2013-07-03 22:22:00,
2013-07-03 18:27:00,75.0,74.1,30.04,SE,139,0.0,0.0,97,0.00,,,3.19,WeatherCatV1.15B25,2013-07-03 22:27:00,
2013-07-03 18:32:00,75.1,74.2,30.04,SE,139,0.0,0.0,97,0.00,,,3.19,WeatherCatV1.15B25,2013-07-03 22:32:00,
2013-07-03 18:37:00,75.1,74.2,30.04,SE,139,0.0,0.0,97,0.00,,,3.19,WeatherCatV1.15B25,2013-07-03 22:37:00,
2013-07-03 18:42:00,75.2,74.3,30.04,SE,139,0.0,0.0,97,0.00,,,3.19,WeatherCatV1.15B25,2013-07-03 22:42:00,
2013-07-03 18:47:00,75.3,74.1,30.04,East,83,0.0,2.0,96,0.00,,,3.19,WeatherCatV1.15B25,2013-07-03 22:47:00,
2013-07-03 18:52:00,75.3,74.1,30.05,ESE,103,2.0,2.0,96,0.00,,,3.19,WeatherCatV1.15B25,2013-07-03 22:52:00,
2013-07-03 18:57:00,75.4,74.2,30.05,East,94,2.0,2.0,96,0.00,,,3.19,WeatherCatV1.15B25,2013-07-03 22:57:00,
2013-07-03 19:02:00,75.5,74.3,30.05,ESE,102,0.0,0.0,96,0.00,,,3.19,WeatherCatV1.15B25,2013-07-03 23:02:00,
2013-07-03 19:07:00,75.5,74.3,30.05,ESE,121,0.0,1.0,96,0.00,,,3.19,WeatherCatV1.15B25,2013-07-03 23:07:00,
2013-07-03 19:12:00,75.5,74.3,30.05,SE,136,0.0,2.0,96,0.00,,,3.19,WeatherCatV1.15B25,2013-07-03 23:12:00,
2013-07-03 19:17:00,75.6,74.4,30.05,SE,140,0.0,1.0,96,0.00,,,3.19,WeatherCatV1.15B25,2013-07-03 23:17:00,
2013-07-03 19:22:00,75.6,74.4,30.05,ESE,107,0.0,2.0,96,0.00,,,3.19,WeatherCatV1.15B25,2013-07-03 23:22:00,
2013-07-03 19:27:00,75.6,74.4,30.05,ESE,111,0.0,0.0,96,0.00,,,3.19,WeatherCatV1.15B25,2013-07-03 23:27:00,
2013-07-03 19:32:00,75.6,74.4,30.05,ESE,119,0.0,1.0,96,0.00,,,3.19,WeatherCatV1.15B25,2013-07-03 23:32:00,
2013-07-03 19:37:00,75.6,74.4,30.04,ESE,119,0.0,0.0,96,0.00,,,3.19,WeatherCatV1.15B25,2013-07-03 23:37:00,
2013-07-03 19:42:00,75.7,74.5,30.04,ESE,119,0.0,0.0,96,0.00,,,3.19,WeatherCatV1.15B25,2013-07-03 23:42:00,
2013-07-03 19:47:00,75.6,74.4,30.05,ESE,119,0.0,0.0,96,0.00,,,3.19,WeatherCatV1.15B25,2013-07-03 23:47:00,
2013-07-03 19:52:00,75.5,74.3,30.05,ESE,119,0.0,1.0,96,0.00,,,3.19,WeatherCatV1.15B25,2013-07-03 23:52:00,
2013-07-03 19:57:00,75.5,74.3,30.06,ESE,109,0.0,1.0,96,0.00,,,3.19,WeatherCatV1.15B25,2013-07-03 23:57:00,
2013-07-03 20:02:00,75.4,74.2,30.06,East,97,0.0,3.0,96,0.00,,,3.19,WeatherCatV1.15B25,2013-07-04 00:02:00,
2013-07-03 20:07:00,75.4,74.2,30.06,East,88,0.0,2.0,96,0.00,,,3.19,WeatherCatV1.15B25,2013-07-04 00:07:00,
2013-07-03 20:12:00,75.3,74.1,30.06,East,94,0.0,0.0,96,0.00,,,3.19,WeatherCatV1.15B25,2013-07-04 00:12:00,
2013-07-03 20:17:00,75.3,74.1,30.06,ESE,105,0.0,2.0,96,0.00,,,3.19,WeatherCatV1.15B25,2013-07-04 00:17:00,
2013-07-03 20:22:00,75.3,74.1,30.06,East,98,1.0,4.0,96,0.00,,,3.19,WeatherCatV1.15B25,2013-07-04 00:22:00,
2013-07-03 20:27:00,75.2,74.0,30.06,ESE,109,1.0,4.0,96,0.00,,,3.19,WeatherCatV1.15B25,2013-07-04 00:27:00,
2013-07-03 20:32:00,75.2,74.0,30.05,East,80,3.0,4.0,96,0.00,,,3.19,WeatherCatV1.15B25,2013-07-04 00:32:00,
2013-07-03 20:37:00,75.1,73.9,30.05,East,86,0.0,0.0,96,0.00,,,3.19,WeatherCatV1.15B25,2013-07-04 00:37:00,
2013-07-03 20:42:00,75.1,73.9,30.05,ESE,104,0.0,2.0,96,0.00,,,3.19,WeatherCatV1.15B25,2013-07-04 00:42:00,
2013-07-03 20:47:00,75.1,73.9,30.06,East,97,0.0,0.0,96,0.00,,,3.19,WeatherCatV1.15B25,2013-07-04 00:47:00,
2013-07-03 20:52:00,75.1,73.9,30.06,East,81,0.0,2.0,96,0.00,,,3.19,WeatherCatV1.15B25,2013-07-04 00:52:00,
2013-07-03 20:57:00,75.0,73.8,30.06,East,81,0.0,1.0,96,0.00,,,3.19,WeatherCatV1.15B25,2013-07-04 00:57:00,
2013-07-03 21:02:00,75.0,73.8,30.06,East,85,2.0,2.0,96,0.00,,,3.19,WeatherCatV1.15B25,2013-07-04 01:02:00,
2013-07-03 21:07:00,75.0,73.8,30.06,ESE,104,0.0,2.0,96,0.00,,,3.19,WeatherCatV1.15B25,2013-07-04 01:07:00,
2013-07-03 21:12:00,75.0,73.8,30.06,ESE,105,1.0,2.0,96,0.00,,,3.19,WeatherCatV1.15B25,2013-07-04 01:12:00,
2013-07-03 21:17:00,75.1,73.9,30.06,East,90,1.0,3.0,96,0.00,,,3.19,WeatherCatV1.15B25,2013-07-04 01:17:00,
2013-07-03 21:22:00,75.1,73.9,30.07,ESE,107,2.0,4.0,96,0.00,,,3.19,WeatherCatV1.15B25,2013-07-04 01:22:00,
2013-07-03 21:27:00,75.1,73.9,30.07,East,84,0.0,2.0,96,0.00,,,3.19,WeatherCatV1.15B25,2013-07-04 01:27:00,
2013-07-03 21:32:00,75.1,73.9,30.07,East,95,1.0,5.0,96,0.00,,,3.19,WeatherCatV1.15B25,2013-07-04 01:32:00,
2013-07-03 21:37:00,75.1,73.9,30.07,East,98,0.0,1.0,96,0.00,,,3.19,WeatherCatV1.15B25,2013-07-04 01:37:00,
2013-07-03 21:42:00,75.1,73.9,30.08,ESE,114,1.0,1.0,96,0.00,,,3.19,WeatherCatV1.15B25,2013-07-04 01:42:00,
2013-07-03 21:47:00,75.1,73.9,30.08,East,90,1.0,2.0,96,0.00,,,3.19,WeatherCatV1.15B25,2013-07-04 01:47:00,
2013-07-03 21:52:00,75.0,73.8,30.08,ESE,113,1.0,3.0,96,0.00,,,3.19,WeatherCatV1.15B25,2013-07-04 01:52:00,
2013-07-03 21:57:00,75.0,73.8,30.08,ESE,106,3.0,4.0,96,0.00,,,3.19,WeatherCatV1.15B25,2013-07-04 01:57:00,
2013-07-03 22:02:00,75.0,73.8,30.09,ESE,103,1.0,1.0,96,0.00,,,3.19,WeatherCatV1.15B25,2013-07-04 02:02:00,
2013-07-03 22:07:00,74.9,73.7,30.09,East,98,4.0,4.0,96,0.00,,,3.19,WeatherCatV1.15B25,2013-07-04 02:07:00,
2013-07-03 22:12:00,74.9,73.7,30.09,ENE,76,0.0,5.0,96,0.00,,,3.19,WeatherCatV1.15B25,2013-07-04 02:12:00,
2013-07-03 22:17:00,74.9,73.7,30.09,ESE,104,2.0,5.0,96,0.00,,,3.19,WeatherCatV1.15B25,2013-07-04 02:17:00,
2013-07-03 22:22:00,74.8,73.6,30.08,ESE,111,4.0,4.0,96,0.00,,,3.19,WeatherCatV1.15B25,2013-07-04 02:22:00,
2013-07-03 22:27:00,74.8,73.6,30.08,ENE,76,0.0,1.0,96,0.00,,,3.19,WeatherCatV1.15B25,2013-07-04 02:27:00,
2013-07-03 22:32:00,74.7,73.5,30.08,East,99,0.0,2.0,96,0.00,,,3.19,WeatherCatV1.15B25,2013-07-04 02:32:00,
2013-07-03 22:37:00,74.7,73.5,30.08,East,89,0.0,3.0,96,0.00,,,3.19,WeatherCatV1.15B25,2013-07-04 02:37:00,
2013-07-03 22:42:00,74.6,73.4,30.08,East,90,2.0,5.0,96,0.00,,,3.19,WeatherCatV1.15B25,2013-07-04 02:42:00,
2013-07-03 22:47:00,74.6,73.4,30.08,ENE,69,1.0,5.0,96,0.00,,,3.19,WeatherCatV1.15B25,2013-07-04 02:47:00,
2013-07-03 22:52:00,74.6,73.4,30.08,ESE,109,0.0,3.0,96,0.00,,,3.19,WeatherCatV1.15B25,2013-07-04 02:52:00,
2013-07-03 22:57:00,74.6,73.4,30.09,East,84,0.0,2.0,96,0.00,,,3.19,WeatherCatV1.15B25,2013-07-04 02:57:00,
2013-07-03 23:02:00,74.6,73.4,30.09,East,98,1.0,5.0,96,0.00,,,3.19,WeatherCatV1.15B25,2013-07-04 03:02:00,
2013-07-03 23:07:00,74.5,73.3,30.09,East,86,0.0,0.0,96,0.00,,,3.19,WeatherCatV1.15B25,2013-07-04 03:07:00,
2013-07-03 23:12:00,74.5,73.3,30.09,East,86,0.0,1.0,96,0.00,,,3.19,WeatherCatV1.15B25,2013-07-04 03:12:00,
2013-07-03 23:17:00,74.5,73.3,30.10,East,86,0.0,1.0,96,0.00,,,3.19,WeatherCatV1.15B25,2013-07-04 03:17:00,
2013-07-03 23:22:00,74.5,73.3,30.09,East,92,0.0,3.0,96,0.00,,,3.19,WeatherCatV1.15B25,2013-07-04 03:22:00,
2013-07-03 23:27:00,74.4,73.2,30.10,East,94,0.0,2.0,96,0.00,,,3.19,WeatherCatV1.15B25,2013-07-04 03:27:00,
2013-07-03 23:32:00,74.4,73.2,30.10,ESE,109,0.0,4.0,96,0.00,,,3.19,WeatherCatV1.15B25,2013-07-04 03:32:00,
2013-07-03 23:37:00,74.4,73.2,30.10,East,83,0.0,4.0,96,0.00,,,3.19,WeatherCatV1.15B25,2013-07-04 03:37:00,
2013-07-03 23:42:00,74.4,73.2,30.10,ESE,102,3.0,4.0,96,0.00,,,3.19,WeatherCatV1.15B25,2013-07-04 03:42:00,
2013-07-03 23:47:00,74.5,73.3,30.11,East,99,4.0,5.0,96,0.00,,,3.19,WeatherCatV1.15B25,2013-07-04 03:47:00,
2013-07-03 23:52:00,74.5,73.3,30.11,East,80,0.0,4.0,96,0.00,,,3.19,WeatherCatV1.15B25,2013-07-04 03:52:00,
2013-07-03 23:57:00,74.5,73.3,30.11,ENE,60,0.0,1.0,96,0.00,,,3.19,WeatherCatV1.15B25,2013-07-04 03:57:00,